GW4808 Weather Reports


time (UTC)temp
C
wind
direction
speed
KPH
gust
KPH
rain 1hr
cm
rain 24hr
cm
rain mn
cm
humidity
%
barometer
mb
20260509213105 15 109 1.6 3.2 0.00 0.00 0.00 99 1020.8
20260509211304 14 228 1.6 3.2 0.00 0.00 0.00 99 1020.5
20260509210105 13 274 3.2 4.8 0.00 0.00 0.00 99 1020.4
20260509205505 13 264 3.2 4.8 0.00 0.00 0.00 99 1020.2
20260509204905 13 248 1.6 4.8 0.00 0.00 0.00 99 1020.2
20260509203705 13 240 3.2 4.8 0.00 0.00 0.00 99 1020.0
20260509202504 13 272 3.2 4.8 0.00 0.00 0.00 99 1020.0
20260509201304 13 263 3.2 6.4 0.00 0.00 0.00 99 1019.8
20260509200704 14 257 3.2 4.8 0.00 0.00 0.00 99 1019.7
20260509200104 14 156 3.2 4.8 0.00 0.00 0.00 99 1019.6
20260509194905 15 93 6.4 9.7 0.00 0.00 0.00 98 1019.4
20260509194305 15 111 3.2 8.0 0.00 0.00 0.00 99 1019.1
20260509193705 15 147 3.2 4.8 0.00 0.00 0.00 98 1019.2
20260509193105 15 128 3.2 6.4 0.00 0.00 0.00 99 1019.2
20260509191905 14 178 3.2 4.8 0.00 0.00 0.00 99 1019.3
20260509191305 13 248 3.2 4.8 0.00 0.00 0.00 99 1019.2
20260509190705 13 254 3.2 4.8 0.00 0.00 0.00 99 1019.2
20260509190105 13 260 3.2 4.8 0.00 0.00 0.00 99 1019.2
20260509185505 13 266 4.8 6.4 0.00 0.00 0.00 99 1019.2
20260509184905 13 288 4.8 6.4 0.00 0.00 0.00 99 1019.2
20260509184305 13 282 3.2 6.4 0.00 0.00 0.00 99 1019.1
20260509183704 13 276 3.2 4.8 0.00 0.00 0.00 99 1019.0
20260509183105 13 264 1.6 4.8 0.00 0.00 0.00 99 1018.9
20260509182505 13 281 3.2 4.8 0.00 0.00 0.00 99 1018.9
20260509181905 13 283 3.2 4.8 0.00 0.00 0.00 99 1018.9
20260509181305 13 277 3.2 6.4 0.00 0.00 0.00 99 1018.7
20260509175504 13 277 3.2 4.8 0.00 0.00 0.00 99 1018.9
20260509174904 14 292 1.6 4.8 0.00 0.00 0.00 98 1018.8
20260509173704 14 284 1.6 3.2 0.00 0.00 0.00 99 1018.8
20260509173104 14 100 3.2 6.4 0.00 0.00 0.00 99 1018.8
20260509171904 14 207 3.2 4.8 0.00 0.00 0.00 99 1018.7
20260509171304 14 271 3.2 4.8 0.00 0.00 0.00 98 1018.8
20260509170705 14 268 3.2 4.8 0.00 0.00 0.00 98 1018.8
20260509164904 14 267 1.6 4.8 0.00 0.00 0.00 99 1018.8
20260509164304 14 265 1.6 3.2 0.00 0.00 0.00 99 1018.8
20260509162504 15 118 3.2 6.4 0.00 0.00 0.00 97 1019.0
20260509161904 15 116 4.8 8.0 0.00 0.00 0.00 97 1019.0
20260509161305 15 109 4.8 8.0 0.00 0.00 0.00 97 1019.1
20260509160705 15 116 4.8 8.0 0.00 0.00 0.00 98 1019.2
20260509155505 15 139 3.2 4.8 0.00 0.00 0.00 97 1019.4
20260509154904 15 191 1.6 4.8 0.00 0.00 0.00 99 1019.5
20260509154304 15 262 1.6 3.2 0.00 0.00 0.00 98 1019.5
20260509153705 14 251 1.6 3.2 0.00 0.00 0.00 99 1019.5
20260509153104 14 257 1.6 3.2 0.00 0.00 0.00 99 1019.6
20260509152504 14 255 1.6 3.2 0.00 0.00 0.00 99 1019.5
20260509151905 14 257 3.2 3.2 0.00 0.00 0.00 98 1019.6
20260509151305 14 248 3.2 3.2 0.00 0.00 0.00 98 1019.7
20260509150704 15 211 1.6 3.2 0.00 0.00 0.00 97 1019.8
20260509150104 15 128 3.2 4.8 0.00 0.00 0.00 95 1019.8
20260509145504 15 108 4.8 6.4 0.00 0.00 0.00 97 1019.7
20260509144304 15 106 8.0 12.9 0.00 0.00 0.00 99 1019.8
20260509143704 15 104 8.0 12.9 0.00 0.00 0.00 99 1019.6
20260509143104 15 106 6.4 11.3 0.00 0.00 0.00 98 1019.6
20260509142504 15 114 4.8 8.0 0.00 0.00 0.00 98 1019.9
20260509141904 15 108 4.8 8.0 0.00 0.00 0.00 98 1020.0
20260509141304 15 109 6.4 8.0 0.00 0.00 0.00 98 1020.0
20260509140104 15 104 4.8 8.0 0.00 0.00 0.00 97 1020.0
20260509134904 16 107 4.8 6.4 0.00 0.00 0.00 96 1020.0
20260509134304 16 107 8.0 11.3 0.00 0.00 0.00 97 1020.1
20260509133104 16 95 9.7 19.3 0.00 0.00 0.00 95 1020.0
20260509132505 16 108 6.4 11.3 0.00 0.00 0.00 93 1020.2
20260509131905 17 94 8.0 11.3 0.00 0.00 0.00 93 1020.1
20260509131304 17 100 6.4 11.3 0.00 0.00 0.00 91 1020.2
20260509130704 17 109 6.4 11.3 0.00 0.00 0.00 91 1020.1
20260509125505 18 105 9.7 17.7 0.00 0.00 0.00 90 1020.1
20260509124905 18 100 11.3 17.7 0.00 0.00 0.00 90 1020.1
20260509124305 18 97 9.7 17.7 0.00 0.00 0.00 89 1020.1
20260509123705 18 104 11.3 20.9 0.00 0.00 0.00 90 1020.1
20260509122505 18 86 12.9 16.1 0.00 0.00 0.00 88 1020.2
20260509121905 18 92 12.9 17.7 0.00 0.00 0.00 88 1020.2
20260509121305 18 98 11.3 17.7 0.00 0.00 0.00 90 1020.3
20260509120105 17 91 12.9 20.9 0.00 0.00 0.00 90 1020.4
20260509114905 17 83 14.5 19.3 0.00 0.00 0.00 90 1020.4
20260509114304 16 91 11.3 19.3 0.00 0.00 0.00 93 1020.6
20260509113704 15 96 17.7 17.7 0.00 0.00 0.00 92 1020.5
20260509113105 15 103 12.9 22.5 0.00 0.00 0.00 88 1020.6
20260509112505 15 101 12.9 22.5 0.00 0.00 0.00 88 1020.7
20260509111905 15 86 11.3 16.1 0.00 0.00 0.00 88 1020.7
20260509111305 15 87 9.7 14.5 0.00 0.00 0.00 88 1020.6
20260509110705 15 89 9.7 12.9 0.00 0.00 0.00 87 1020.6
20260509105505 15 94 8.0 17.7 0.00 0.00 0.00 85 1020.6
20260509104304 15 89 8.0 12.9 0.00 0.00 0.00 83 1020.5
20260509103105 16 96 6.4 11.3 0.00 0.00 0.00 85 1020.6
20260509102505 16 99 8.0 9.7 0.00 0.00 0.00 88 1020.5
20260509101304 15 102 9.7 17.7 0.00 0.00 0.00 90 1020.5
20260509100105 15 108 9.7 14.5 0.00 0.00 0.00 87 1020.3
20260509094305 15 119 9.7 16.1 0.00 0.00 0.00 83 1020.1
20260509093705 15 98 9.7 16.1 0.00 0.00 0.00 81 1020.1
20260509092504 15 110 8.0 9.7 0.00 0.00 0.00 81 1020.0
20260509091305 15 131 6.4 9.7 0.00 0.00 0.00 81 1019.9
20260509090105 15 133 6.4 9.7 0.00 0.00 0.00 81 1019.5
20260509085505 15 127 6.4 8.0 0.00 0.00 0.00 80 1019.6
20260509084304 15 119 6.4 14.5 0.00 0.00 0.00 79 1019.5
20260509083704 16 136 4.8 9.7 0.00 0.00 0.00 77 1019.4
20260509082504 17 123 8.0 11.3 0.00 0.00 0.00 67 1019.2
20260509081905 18 114 8.0 11.3 0.00 0.00 0.00 64 1019.1
20260509081305 18 111 8.0 14.5 0.00 0.00 0.00 61 1019.0
20260509080705 19 118 8.0 14.5 0.00 0.00 0.00 59 1019.0
20260509080105 20 110 8.0 12.9 0.00 0.00 0.00 57 1018.9
20260509074305 21 109 8.0 9.7 0.00 0.00 0.00 52 1018.6
20260509073705 21 115 9.7 14.5 0.00 0.00 0.00 49 1018.5
20260509073104 21 111 9.7 14.5 0.00 0.00 0.00 47 1018.6
20260509072505 22 115 8.0 11.3 0.00 0.00 0.00 45 1018.4
20260509071905 22 116 8.0 11.3 0.00 0.00 0.00 44 1018.4
20260509071304 22 113 8.0 11.3 0.00 0.00 0.00 42 1018.3
20260509070705 22 118 8.0 12.9 0.00 0.00 0.00 41 1018.2
20260509065505 23 115 9.7 12.9 0.00 0.00 0.00 39 1018.1
20260509064304 23 111 11.3 17.7 0.00 0.00 0.00 38 1018.0
20260509063704 23 109 11.3 17.7 0.00 0.00 0.00 36 1018.0
20260509063104 23 109 12.9 19.3 0.00 0.00 0.00 34 1017.8
20260509062505 23 111 12.9 24.1 0.00 0.00 0.00 33 1017.8
20260509061905 24 106 14.5 24.1 0.00 0.00 0.00 32 1017.7
20260509061305 24 108 14.5 22.5 0.00 0.00 0.00 31 1017.7
20260509060104 24 111 14.5 25.7 0.00 0.00 0.00 32 1017.6
20260509055504 24 118 16.1 22.5 0.00 0.00 0.00 32 1017.4
20260509054904 24 100 22.5 22.5 0.00 0.00 0.00 33 1017.4
20260509054304 24 100 22.5 29.0 0.00 0.00 0.00 33 1017.2
20260509053105 25 114 20.9 27.4 0.00 0.00 0.00 33 1017.2
20260509052504 25 111 20.9 27.4 0.00 0.00 0.00 33 1017.0
20260509051904 25 98 17.7 24.1 0.00 0.00 0.00 33 1017.1
20260509050704 25 104 16.1 24.1 0.00 0.00 0.00 33 1017.0
20260509045505 25 105 14.5 20.9 0.00 0.00 0.00 34 1017.0
20260509044905 25 104 14.5 20.9 0.00 0.00 0.00 35 1017.0
20260509043104 26 108 16.1 22.5 0.00 0.00 0.00 35 1017.0
20260509042505 25 94 14.5 22.5 0.00 0.00 0.00 34 1017.0
20260509041905 25 97 14.5 24.1 0.00 0.00 0.00 35 1016.9
20260509041305 25 96 14.5 24.1 0.00 0.00 0.00 35 1017.0
20260509040705 26 99 12.9 24.1 0.00 0.00 0.00 34 1017.0
20260509035505 26 97 14.5 25.7 0.00 0.00 0.00 33 1017.1
20260509034905 26 85 16.1 24.1 0.00 0.00 0.00 33 1017.3
20260509034304 26 85 14.5 22.5 0.00 0.00 0.00 33 1017.2
20260509033705 26 94 12.9 19.3 0.00 0.00 0.00 34 1017.3
20260509033105 26 90 12.9 17.7 0.00 0.00 0.00 34 1017.5
20260509032505 26 93 11.3 17.7 0.00 0.00 0.00 35 1017.5
20260509031905 26 107 14.5 25.7 0.00 0.00 0.00 33 1017.5
20260509030704 26 90 14.5 19.3 0.00 0.00 0.00 35 1017.6
20260509030104 25 88 14.5 22.5 0.00 0.00 0.00 35 1017.6
20260509024905 25 99 14.5 20.9 0.00 0.00 0.00 35 1018.0
20260509024305 25 111 12.9 24.1 0.00 0.00 0.00 36 1018.0
20260509023705 25 110 14.5 24.1 0.00 0.00 0.00 36 1018.1
20260509021904 25 111 11.3 22.5 0.00 0.00 0.00 37 1018.1
20260509021304 25 128 9.7 19.3 0.00 0.00 0.00 37 1018.4
20260509020704 25 130 9.7 14.5 0.00 0.00 0.00 38 1018.5
20260509020105 25 131 12.9 22.5 0.00 0.00 0.00 39 1018.6
20260509014905 25 99 16.1 24.1 0.00 0.00 0.00 40 1018.8
20260509014305 25 103 16.1 27.4 0.00 0.00 0.00 40 1019.0
20260509013705 25 97 14.5 27.4 0.00 0.00 0.00 39 1019.0
20260509013105 25 96 14.5 20.9 0.00 0.00 0.00 41 1019.1
20260509012505 25 102 14.5 22.5 0.00 0.00 0.00 42 1019.2
20260509011905 24 102 14.5 27.4 0.00 0.00 0.00 44 1019.3
20260509011305 25 137 9.7 16.1 0.00 0.00 0.00 41 1019.4
20260509010705 24 171 9.7 14.5 0.00 0.00 0.00 40 1019.5
20260509005504 24 178 11.3 17.7 0.00 0.00 0.00 39 1019.6
20260509004904 23 161 8.0 16.1 0.00 0.00 0.00 40 1019.6
20260509004305 24 158 8.0 12.9 0.00 0.00 0.00 40 1019.7
20260509003705 23 144 9.7 19.3 0.00 0.00 0.00 40 1019.8
20260509002505 23 157 6.4 14.5 0.00 0.00 0.00 37 1020.0
20260509001904 23 185 8.0 11.3 0.00 0.00 0.00 38 1020.0
20260509001304 23 113 8.0 16.1 0.00 0.00 0.00 38 1020.0
20260509000704 23 112 6.4 11.3 0.00 0.00 0.00 38 1020.1
20260509000105 22 167 8.0 12.9 0.00 0.00 0.00 38 1020.0
20260508233705 21 248 4.8 9.7 0.00 0.00 0.00 41 1020.0
20260508233104 21 260 4.8 9.7 0.00 0.00 0.00 41 1019.9
20260508231304 20 277 4.8 9.7 0.00 0.00 0.00 42 1020.0
20260508230704 20 266 4.8 8.0 0.00 0.00 0.00 43 1020.0
20260508230104 19 272 4.8 8.0 0.00 0.00 0.00 43 1020.0
20260508225504 19 251 3.2 4.8 0.00 0.00 0.00 43 1020.0
20260508224305 18 203 3.2 6.4 0.00 0.00 0.00 43 1019.9
20260508223705 18 225 3.2 4.8 0.00 0.00 0.00 43 1019.9
20260508223105 18 238 3.2 4.8 0.00 0.00 0.00 43 1019.8
20260508222505 17 210 3.2 4.8 0.00 0.00 0.00 45 1019.8
20260508221905 17 200 3.2 3.2 0.00 0.00 0.00 44 1019.7
20260508221304 17 216 3.2 4.8 0.00 0.00 0.00 45 1019.5
20260508220704 16 206 3.2 4.8 0.00 0.00 0.00 46 1019.5
20260508220105 16 208 3.2 4.8 0.00 0.00 0.00 48 1019.5
20260508215505 15 245 3.2 4.8 0.00 0.00 0.00 50 1019.5
20260508214905 15 250 3.2 4.8 0.00 0.00 0.00 55 1019.6
20260508214305 13 253 3.2 4.8 0.00 0.00 0.00 57 1019.5
20260508213705 13 238 4.8 4.8 0.00 0.00 0.00 65 1019.5